Wind_Speed
117 118 117 117 116 115 114 113 112 111 111 111 110 111 111 111 111 111 111 110 110 109 108 107 106 105 105 104 104 103 103 103 102 102 101 100 100 100 100 100 99 98 98 98 98 99 98 98 98 99 101 101 101 101 101 102 102 102 102 102 102 102 103 103 102 96 93 93 94 93 94 94 95 97 100 100 101 101 101 101 101 101 101 102 104
119 119 120 120 121 120 120 119 117 116 115 115 114 114 114 114 113 113 113 114 114 113 112 112 111 110 109 109 108 108 107 107 107 106 105 104 104 103 103 103 102 102 101 102 102 103 102 102 102 103 105 105 105 105 105 105 106 106 106 105 105 105 106 106 105 102 97 95 96 96 96 96 97 98 101 103 103 104 104 104 105 105 105 105 106
121 121 121 122 122 123 123 123 123 122 121 120 119 118 118 118 117 117 117 117 116 116 116 116 115 115 114 113 113 113 112 112 112 111 110 109 108 107 107 106 105 104 104 104 104 105 105 105 105 106 107 107 107 107 107 108 109 109 109 109 109 109 109 110 109 107 103 100 99 100 100 100 100 101 103 105 106 107 107 107 108 107 108 108 108
125 124 123 123 123 123 124 124 125 126 126 126 125 124 123 122 121 121 121 121 120 120 119 119 118 118 118 118 118 117 117 117 117 116 115 114 113 112 112 111 109 108 107 107 107 107 107 107 107 108 109 109 109 109 110 111 112 112 112 112 113 113 113 114 113 112 110 106 104 104 105 105 104 105 106 107 108 109 109 110 110 110 110 111 111
129 128 127 126 126 125 125 126 126 127 127 128 128 128 128 127 126 125 125 125 125 124 123 123 122 121 121 121 121 121 122 122 121 121 120 120 119 118 117 116 115 113 112 111 111 111 111 111 111 112 113 113 113 113 114 115 115 115 115 115 116 116 116 117 117 116 115 112 109 109 109 109 109 109 109 109 110 111 111 111 112 112 113 113 113
134 132 131 130 129 129 129 129 129 129 128 128 128 129 130 130 130 130 129 129 128 128 128 127 127 126 125 125 124 124 125 125 126 126 125 125 124 123 122 121 120 119 118 117 116 115 115 115 115 116 117 117 117 117 118 119 119 119 119 118 119 120 119 119 120 120 119 117 115 113 113 113 113 112 112 112 113 113 113 114 114 115 116 116 116
138 137 135 134 133 133 132 132 133 133 132 131 131 131 131 131 131 132 132 132 132 132 132 132 131 131 130 129 129 128 128 129 130 130 130 129 128 127 126 126 125 124 123 123 122 120 120 119 119 119 119 120 120 121 122 123 123 123 123 123 123 124 124 123 124 124 123 122 120 118 117 117 117 116 116 116 116 116 116 117 118 118 119 120 120
143 141 140 139 138 138 138 137 137 137 137 136 135 135 134 134 134 134 134 134 134 135 135 135 135 135 135 134 134 133 133 133 133 133 134 134 133 132 131 130 129 129 128 127 127 126 125 124 123 123 123 123 123 123 124 125 126 126 126 127 127 128 127 127 127 127 127 126 124 123 122 121 120 120 120 120 120 120 121 122 122 121 123 124 125
148 147 146 145 145 144 144 144 144 144 143 142 141 140 140 139 138 138 137 136 135 136 136 137 137 138 138 138 138 138 138 138 137 137 137 137 137 136 135 134 133 132 132 131 131 131 130 129 128 128 127 127 127 127 127 128 128 128 128 129 130 130 130 130 130 129 129 129 128 127 126 125 123 123 124 124 124 124 125 126 125 125 126 127 127
152 152 152 152 151 151 151 151 151 151 150 148 147 146 145 145 144 143 142 141 140 139 138 139 139 140 140 141 141 141 142 142 141 141 140 140 140 140 139 138 137 137 136 135 135 135 135 134 133 133 132 132 132 132 132 132 132 132 131 131 132 132 132 132 132 132 133 133 132 131 130 129 127 127 128 128 128 128 129 130 130 129 130 129 129
158 158 158 158 158 157 157 157 157 157 156 155 153 152 150 150 149 148 148 147 146 145 144 143 143 143 143 144 144 145 146 146 145 144 143 142 142 142 142 142 142 141 140 139 139 138 139 139 138 138 138 138 138 138 138 137 137 137 136 135 135 135 135 135 135 135 136 136 136 136 134 133 131 131 132 132 133 133 134 134 134 133 133 133 133
164 164 164 164 164 164 163 163 162 161 161 160 159 158 156 155 154 153 152 152 152 151 150 150 149 149 148 148 148 149 150 150 150 149 148 147 146 144 144 144 144 145 144 144 143 142 142 142 142 142 142 142 143 143 143 143 142 142 141 140 139 139 139 138 138 138 139 139 139 139 138 137 136 135 136 137 138 138 138 137 137 137 137 137 136
170 170 170 170 169 169 168 168 167 166 165 165 165 163 162 161 159 158 158 157 157 157 157 157 156 155 154 153 153 153 154 154 154 154 153 153 152 150 149 148 147 147 148 148 148 147 147 146 146 146 146 146 147 147 147 147 146 145 145 144 143 143 142 142 142 142 142 143 143 142 141 140 140 139 140 141 141 141 140 139 140 140 141 140 139
176 176 175 175 175 174 173 172 172 171 170 169 169 168 167 166 165 163 163 162 162 162 162 162 162 162 161 160 159 159 159 159 158 158 158 158 158 157 156 155 153 152 151 151 152 152 151 151 150 150 149 150 150 150 150 149 149 148 148 147 147 147 146 146 146 147 148 148 147 145 144 143 143 142 142 143 143 143 142 142 143 144 144 144 143
176 177 177 178 178 178 177 177 177 176 175 174 173 172 171 170 169 168 167 166 166 166 166 166 167 167 166 166 165 165 165 165 165 164 163 163 163 162 162 161 159 158 157 156 156 155 155 155 154 153 152 152 153 154 153 153 152 151 151 150 150 150 150 150 150 151 153 153 152 150 148 147 146 146 146 146 146 146 146 147 148 148 148 148 147
173 174 175 175 176 176 177 177 177 177 177 176 176 175 175 175 174 173 172 171 171 171 171 170 170 170 170 169 169 169 169 169 169 169 168 168 167 167 166 165 164 163 162 162 161 161 160 160 159 158 157 156 157 157 157 157 155 155 154 153 153 153 152 152 154 155 156 156 156 155 153 152 151 151 151 152 152 152 152 152 152 152 151 151 150
170 171 172 173 174 174 175 175 175 175 175 176 176 177 177 177 177 177 176 176 176 175 175 175 175 174 174 173 173 173 173 173 173 172 171 171 171 170 170 169 168 167 167 167 166 166 166 166 165 164 163 162 163 163 162 162 160 159 158 158 157 156 156 156 158 160 160 159 159 158 158 157 156 156 157 157 157 157 157 156 155 154 154 153 151
167 168 169 170 171 172 173 174 174 174 175 175 176 176 177 178 178 179 179 179 179 179 180 180 180 179 179 179 178 177 177 177 177 177 176 175 175 174 174 173 173 172 172 171 171 171 171 171 171 170 169 168 168 168 168 167 165 164 163 163 162 161 160 161 162 163 163 162 161 161 160 159 159 159 159 159 159 159 159 158 156 156 155 153 150
168 168 168 169 169 170 171 172 172 173 173 174 175 175 176 176 177 178 179 179 180 181 181 182 182 183 183 183 183 182 182 181 181 181 181 181 180 180 179 179 178 178 178 177 177 177 176 177 176 176 175 174 173 173 172 172 171 169 168 167 166 165 165 165 165 165 164 164 163 162 161 161 160 160 160 159 159 159 159 158 157 156 154 152 149
167 168 168 169 170 170 171 171 171 171 172 172 172 173 173 174 175 175 176 177 178 178 179 180 181 182 182 183 184 184 184 185 185 185 185 185 184 184 184 183 183 183 182 182 181 181 181 181 181 181 180 179 178 177 176 176 175 173 172 171 170 169 168 167 167 166 165 164 163 163 162 161 161 160 159 158 158 157 157 157 156 155 154 152 150
164 165 166 167 168 169 170 170 171 171 171 171 172 172 172 172 172 173 173 173 174 175 176 177 178 178 179 181 182 183 183 184 184 185 185 185 185 185 185 185 184 184 184 183 182 182 182 182 182 182 181 180 179 178 178 177 176 175 174 172 171 170 169 168 167 166 165 164 163 162 161 160 160 159 158 157 156 156 156 156 156 156 156 154 153
160 161 162 163 164 165 166 167 168 169 169 170 170 171 171 172 172 172 172 172 172 173 173 174 174 175 176 177 178 179 180 181 181 182 182 182 183 183 183 183 183 182 182 181 180 179 179 179 180 180 180 180 179 178 177 176 175 174 173 172 171 170 169 168 166 165 165 164 163 162 161 160 159 159 158 157 156 156 156 157 157 157 157 157 156
156 157 158 159 160 161 162 163 164 165 165 165 166 166 167 168 169 169 170 170 171 172 172 173 173 173 173 174 175 176 177 178 178 178 178 178 179 179 179 179 179 179 179 178 177 176 176 177 177 178 178 178 177 177 176 175 174 173 172 171 171 170 169 168 166 166 165 164 164 163 162 161 161 160 160 159 158 158 158 158 159 159 159 159 159
151 152 153 154 155 156 157 158 160 161 161 162 162 162 162 163 164 164 165 165 166 167 169 170 170 171 172 172 173 174 175 176 176 177 177 177 177 177 177 177 177 177 177 177 176 175 175 175 175 175 176 176 176 175 175 174 173 172 171 171 170 169 168 167 166 165 164 164 163 163 162 162 161 161 161 161 161 160 160 160 160 160 160 161 161
144 146 147 147 148 149 151 152 153 155 156 157 158 158 159 159 160 160 160 160 161 162 163 164 165 166 167 168 169 170 171 172 173 174 175 175 175 175 175 175 175 175 176 176 175 175 175 175 174 174 175 175 175 175 175 174 173 172 172 171 170 169 168 167 166 165 164 163 163 162 162 161 161 161 161 161 161 161 161 161 160 160 160 160 161
136 138 140 141 142 142 143 145 146 148 149 150 151 153 154 154 155 156 156 156 156 157 157 158 159 160 161 162 164 165 166 167 168 169 170 170 171 171 171 172 172 172 173 173 173 173 173 173 173 173 173 173 173 173 173 173 173 172 171 171 170 169 168 167 166 165 164 163 162 161 160 160 160 160 159 160 159 159 159 159 159 158 158 158 158
127 129 131 133 134 135 136 138 139 140 142 143 144 145 146 147 148 149 150 151 151 152 152 153 153 154 155 156 158 159 160 161 162 163 164 165 165 166 166 166 167 167 167 167 168 168 168 168 169 169 169 169 169 169 168 168 168 168 167 166 166 165 164 164 163 162 161 160 159 158 157 157 156 156 156 156 155 155 155 155 155 154 154 153 153
121 122 123 125 126 127 128 130 131 133 135 137 138 139 139 140 141 142 143 144 145 145 146 147 148 148 149 150 151 152 154 155 156 157 158 159 160 160 161 161 161 162 162 162 162 162 163 163 163 163 164 164 164 164 164 163 163 163 162 162 161 160 160 159 158 158 157 155 154 153 153 152 151 150 150 150 150 150 150 150 150 149 148 147 146
120 119 120 120 120 121 121 122 123 125 127 130 132 133 134 135 136 136 137 137 138 138 139 140 141 142 142 143 144 145 146 148 149 151 152 153 154 154 155 155 156 156 156 156 156 156 157 157 157 157 157 157 158 158 158 157 157 157 156 155 155 154 153 152 152 151 150 149 147 146 145 144 143 142 142 142 142 142 143 143 143 143 142 140 139
120 119 118 117 117 117 117 117 118 118 120 122 124 126 127 129 130 131 132 133 133 133 133 134 135 135 136 136 137 138 139 140 141 143 144 146 147 147 148 149 149 150 150 150 151 151 151 151 151 151 151 151 151 151 151 150 150 149 148 148 147 146 145 144 143 142 142 141 140 138 136 135 134 133 133 134 134 135 135 136 136 135 134 133 132
120 119 117 116 115 115 115 115 115 114 115 116 117 118 120 122 123 125 126 127 128 128 128 129 130 131 131 131 131 131 132 133 134 135 137 138 139 140 141 141 142 142 143 144 144 144 145 145 145 145 145 145 145 145 144 144 143 142 141 140 139 138 137 136 135 134 134 133 132 131 129 127 126 125 126 126 126 127 127 127 127 127 126 125 124
117 117 117 116 115 114 113 113 113 112 112 112 113 113 114 115 116 118 119 120 121 123 124 124 125 126 127 128 128 128 128 128 128 129 130 131 132 133 134 134 135 135 136 136 137 137 137 138 138 138 138 138 138 138 137 136 135 134 133 132 131 130 128 127 126 126 125 124 123 122 120 119 118 118 118 117 118 118 118 118 118 117 117 116 115
113 113 114 114 113 112 111 111 110 110 110 110 110 110 110 111 112 113 114 114 115 117 118 119 120 121 122 123 124 125 125 126 126 126 125 126 126 127 127 128 128 129 129 130 130 131 131 131 131 131 131 131 131 131 129 128 127 126 124 123 122 120 119 118 117 116 116 115 114 113 112 110 110 110 109 109 108 109 108 108 108 108 107 107 106
108 108 109 109 110 110 109 108 108 107 107 107 107 108 108 108 109 110 111 111 111 111 113 114 115 116 117 118 120 120 121 122 123 123 123 123 123 123 123 123 123 124 124 125 125 125 125 125 125 125 125 125 125 124 123 121 119 118 117 115 114 113 112 111 110 109 108 108 107 106 105 103 103 102 101 101 100 100 100 100 100 100 100 99 99
102 103 103 104 105 105 105 105 104 104 103 103 104 104 105 106 106 107 108 109 108 108 108 109 110 111 113 114 115 116 117 118 119 120 121 121 121 120 120 120 120 119 119 120 120 120 121 120 120 120 120 120 120 119 117 115 113 112 111 109 108 107 106 105 104 104 103 102 101 100 99 98 97 96 95 94 94 94 94 93 93 93 93 93 93
97 98 98 99 99 100 100 100 100 100 100 99 99 100 101 102 104 104 105 106 106 106 106 106 106 106 108 109 111 112 114 114 115 116 117 118 118 118 118 117 117 116 116 116 116 116 116 116 116 116 116 116 116 114 112 110 108 107 105 105 103 102 101 100 99 99 98 97 96 95 94 93 92 91 90 90 89 89 89 88 88 88 88 87 87
92 93 94 94 95 95 95 96 96 96 96 96 95 96 97 98 99 101 102 103 103 103 104 103 103 103 103 104 106 108 109 110 111 112 113 114 115 115 115 115 114 114 113 113 113 113 113 113 112 113 112 112 112 110 108 106 104 102 101 100 99 98 97 96 95 94 93 93 92 91 90 89 88 87 86 85 85 85 85 84 83 83 83 83 82
88 89 89 90 91 91 91 91 92 92 92 92 92 92 93 94 95 96 98 99 100 100 101 101 101 101 101 101 101 103 105 106 107 108 109 110 111 112 112 112 111 111 111 110 110 110 110 110 109 109 109 109 108 106 105 103 101 99 98 97 96 95 94 93 92 91 90 89 88 87 86 85 84 83 82 82 81 81 80 79 79 79 79 79 79
84 85 85 86 87 87 87 88 88 89 89 89 89 89 90 90 91 92 94 95 96 97 97 98 98 98 98 98 98 99 100 101 102 103 104 105 107 108 108 108 107 107 108 107 107 107 107 107 106 106 105 105 104 103 101 99 98 96 95 94 93 92 91 90 89 88 87 86 85 84 82 81 80 79 79 78 78 78 76 76 75 76 76 76 76
80 81 82 83 84 84 84 84 84 85 85 86 86 87 87 87 88 89 90 91 92 93 94 95 95 96 95 95 95 95 96 96 97 97 99 100 102 103 103 103 103 103 104 104 104 104 104 104 104 103 102 101 100 99 97 96 94 93 93 92 91 90 88 87 86 85 84 83 82 81 79 78 77 77 76 76 76 75 74 73 72 73 73 73 73
76 77 78 79 80 81 81 81 81 82 82 82 83 83 84 84 85 86 86 87 88 89 91 92 93 93 93 93 93 93 93 93 93 93 94 95 96 98 99 99 99 99 99 100 100 101 101 101 101 101 100 99 97 96 94 93 91 90 90 90 89 87 85 84 83 82 81 80 79 78 76 76 75 74 74 73 73 72 71 70 70 70 70 70 70
73 74 75 75 76 77 78 79 79 79 79 79 80 80 81 81 81 82 83 84 85 86 87 88 89 90 91 91 90 90 90 90 90 89 89 90 91 93 94 95 96 96 96 96 97 97 98 98 98 98 98 97 95 93 91 90 89 88 87 87 87 85 83 81 80 80 79 78 77 76 74 73 72 72 72 71 70 70 69 68 68 68 68 68 68
70 71 72 72 73 74 75 76 76 76 76 77 77 77 78 78 78 79 80 80 81 82 83 84 85 87 88 88 88 88 87 87 87 87 87 87 87 88 90 91 92 93 93 93 93 94 94 95 95 95 95 94 93 91 89 88 87 86 86 85 85 83 81 79 79 78 77 76 75 74 73 71 71 70 70 69 69 68 67 66 66 66 65 65 65
68 69 69 70 70 71 71 72 73 74 74 74 74 75 75 75 76 76 76 77 78 79 80 81 82 83 84 85 85 86 85 85 85 84 84 84 85 85 86 87 88 89 89 90 90 90 91 91 91 92 91 91 89 88 87 86 85 85 84 84 83 81 80 78 77 77 76 75 73 72 71 70 69 69 68 68 67 67 66 65 64 64 64 64 63
66 67 67 68 68 68 69 69 70 71 72 72 73 73 73 73 73 74 74 74 75 76 77 78 79 80 81 81 82 83 83 83 83 82 82 82 82 82 83 84 85 85 86 86 87 87 87 87 88 88 88 87 86 86 85 84 83 83 83 82 81 80 79 77 76 76 75 74 72 71 70 69 68 68 67 66 66 66 65 64 64 64 63 63 62
64 65 66 66 66 67 67 67 68 68 69 70 71 71 71 72 72 72 72 72 73 73 74 75 76 77 78 78 79 80 80 81 81 81 81 80 80 80 81 81 82 82 83 83 84 84 85 85 85 85 85 84 84 83 83 82 82 81 81 81 80 79 78 77 76 75 74 73 71 70 69 68 67 67 66 66 65 65 65 64 64 63 63 62 62
62 63 64 64 65 65 66 66 66 66 67 67 68 68 69 69 70 70 71 71 71 72 72 73 74 75 76 76 77 77 78 79 79 79 79 79 79 79 79 80 80 80 80 81 81 82 83 83 82 82 82 82 82 82 81 80 80 80 80 80 79 78 77 76 75 74 73 72 71 69 68 67 67 66 66 65 64 64 64 64 63 63 62 62 61
61 61 62 62 63 64 64 65 65 65 65 65 66 66 67 67 67 68 68 69 69 70 70 70 71 72 73 74 75 75 76 77 77 78 78 77 77 78 78 78 78 78 78 79 79 80 80 80 80 80 79 79 80 79 79 79 78 79 79 78 78 77 76 75 74 73 72 71 70 69 68 67 66 66 65 64 64 63 63 63 63 62 62 62 61
59 60 60 60 61 62 62 63 63 64 64 64 64 65 65 65 66 66 66 67 67 67 67 68 68 69 70 71 72 73 74 75 76 76 76 76 76 76 76 76 76 76 76 76 77 77 77 78 78 77 77 77 77 78 78 77 77 77 77 77 77 76 75 74 73 72 72 71 69 68 67 66 66 65 64 64 63 62 62 62 62 61 61 61 61
58 59 59 59 59 60 60 61 61 62 63 63 63 64 64 64 64 64 65 65 65 66 66 66 66 66 67 68 69 70 71 72 73 74 75 75 76 76 76 75 75 75 75 75 75 74 74 74 74 74 74 75 75 75 76 76 76 76 76 76 76 75 75 74 73 72 71 71 69 68 67 66 65 64 64 63 63 62 61 61 61 61 61 60 60
56 56 57 57 58 58 58 59 59 60 60 61 62 62 62 62 63 63 63 63 63 64 64 64 64 65 65 66 67 67 68 69 70 71 72 73 74 74 75 75 75 75 75 74 74 73 73 72 72 72 72 72 72 73 73 74 74 75 75 75 75 75 74 73 72 71 71 70 69 68 67 66 65 64 63 63 63 62 61 61 61 60 60 60 60
Wind_Direction
253 253 254 254 255 255 255 256 256 256 257 257 257 256 256 256 256 256 257 257 257 258 258 259 260 261 261 262 262 262 262 263 263 263 263 264 264 264 264 265 265 265 266 266 267 267 268 269 269 270 270 271 271 272 272 273 273 274 274 274 275 276 276 276 277 276 276 276 276 277 277 278 280 282 283 284 285 286 287 288 289 290 291 292 293
256 255 255 255 255 256 256 256 255 255 255 256 256 256 256 256 256 256 257 257 258 258 258 259 259 260 260 261 262 262 262 262 263 263 263 263 264 264 264 264 264 265 265 265 266 267 267 268 268 269 269 270 271 272 272 273 273 273 274 274 274 275 275 276 276 276 275 275 276 277 277 278 279 280 282 283 284 286 287 288 289 290 291 292 293
260 259 258 257 256 256 256 257 256 256 255 255 255 255 255 256 256 256 256 256 257 257 258 258 259 259 260 260 261 261 262 262 262 263 263 263 263 264 264 264 264 265 265 265 266 266 267 267 268 268 269 270 270 271 271 272 272 273 273 274 274 274 275 275 276 276 276 275 275 276 277 277 278 280 281 283 284 286 287 288 289 290 291 292 293
261 261 260 260 259 258 258 257 257 257 256 256 255 255 255 255 255 256 256 256 256 257 257 257 258 258 259 259 260 261 261 262 262 262 262 263 263 263 264 264 264 265 265 265 266 266 266 267 267 267 268 269 269 270 270 271 271 272 273 273 274 274 275 275 276 276 276 276 276 276 277 277 278 280 281 283 285 286 287 288 289 290 291 291 292
260 261 261 261 261 261 260 260 259 259 258 257 257 256 255 255 255 255 255 256 256 256 256 257 257 257 258 259 259 260 261 261 262 262 262 262 262 263 263 264 264 264 265 265 266 266 267 267 267 268 268 268 269 269 270 271 271 272 273 273 274 274 275 275 276 276 276 276 276 277 278 278 279 280 282 283 285 286 288 289 289 290 290 291 292
260 260 260 260 261 261 261 261 261 261 260 260 259 258 257 257 256 256 255 255 256 256 257 257 257 257 257 258 258 259 260 260 261 261 262 262 262 262 263 263 264 264 264 265 265 266 266 267 268 268 269 269 269 270 270 271 271 272 272 272 273 274 274 275 275 276 276 277 277 277 278 279 280 281 282 283 285 286 288 289 289 289 290 291 291
259 259 259 259 260 260 261 261 262 262 262 262 261 260 260 259 258 258 257 257 257 257 257 257 257 257 257 258 258 258 259 260 260 261 261 261 262 262 262 263 263 264 264 264 265 265 266 267 267 268 269 269 270 270 271 271 272 272 273 273 273 274 274 275 275 276 277 277 277 278 279 279 280 281 282 283 284 286 287 287 288 289 290 290 291
258 259 259 259 259 260 261 261 262 262 262 262 262 262 262 261 261 260 259 259 258 258 259 259 259 259 258 258 258 259 259 259 260 260 260 261 261 262 262 263 263 264 264 265 265 265 266 266 267 267 268 269 270 271 271 272 273 273 274 274 275 275 275 276 276 277 278 278 278 279 279 280 280 281 282 283 284 285 286 286 287 288 289 289 291
257 257 258 259 259 260 260 261 261 261 261 261 262 262 262 262 262 262 261 261 261 261 261 261 261 261 261 260 260 260 260 260 261 261 261 261 261 261 262 262 263 263 264 264 265 265 266 266 267 267 268 269 270 270 271 272 272 273 274 274 275 276 276 277 277 278 279 279 279 280 280 280 281 282 283 283 284 285 285 286 286 287 288 289 291
256 256 257 258 259 259 260 261 261 261 261 261 261 261 261 261 262 262 262 262 262 262 262 262 262 262 262 262 262 262 262 262 262 262 262 262 262 262 262 262 263 263 264 264 265 265 266 266 266 267 268 268 269 270 271 271 272 273 273 274 275 275 276 277 278 278 279 279 280 280 281 281 282 283 283 284 284 284 285 285 286 287 288 289 290
256 256 256 257 258 258 259 260 261 261 261 261 261 261 261 261 262 262 262 262 263 263 263 263 263 263 263 263 264 264 264 263 263 263 264 264 264 264 263 263 263 264 264 264 265 265 266 266 266 267 268 268 269 270 270 271 271 272 272 273 274 275 276 277 277 278 279 280 280 281 281 282 282 283 283 284 284 284 284 285 286 286 287 288 289
255 255 256 257 257 258 259 259 260 260 260 261 261 261 261 261 261 261 262 262 263 263 263 263 263 263 263 263 263 264 264 265 265 265 265 265 265 265 265 265 265 265 265 266 266 266 266 267 267 268 268 269 270 270 271 271 271 272 272 273 274 275 275 276 277 278 278 279 279 280 281 281 282 282 283 283 283 283 284 285 285 286 286 287 288
255 255 255 256 257 257 258 259 259 260 260 260 260 260 260 260 261 261 261 262 263 263 264 264 264 264 264 264 263 263 264 264 265 266 266 266 267 267 267 267 267 267 267 267 267 267 267 267 268 268 269 270 270 270 271 271 271 272 273 273 274 275 275 276 276 277 277 278 278 279 279 280 280 281 281 282 282 283 283 284 285 285 286 287 288
255 256 256 256 256 257 257 258 259 259 260 260 260 260 260 260 260 261 261 262 262 263 263 264 265 265 265 265 265 265 265 265 265 265 266 266 267 268 268 268 268 268 268 268 268 268 268 268 268 268 269 270 270 270 271 271 271 272 272 273 274 275 275 276 277 277 277 278 278 278 278 279 279 280 281 281 282 283 283 284 284 285 286 287 288
255 256 256 256 257 257 257 258 258 259 259 259 260 260 260 260 260 261 261 261 262 262 263 263 264 264 265 265 265 266 266 266 266 266 267 267 267 268 268 269 269 269 269 269 269 269 269 269 269 269 269 270 270 271 271 271 271 272 272 273 274 274 275 276 277 277 278 278 278 279 279 279 280 280 281 282 282 283 284 284 284 285 286 286 287
255 256 256 256 257 257 258 258 258 258 258 258 258 259 259 260 260 260 261 261 262 262 263 263 263 264 264 265 265 265 266 266 266 267 267 268 268 268 269 269 269 270 270 270 270 271 271 271 271 271 271 271 272 272 272 273 273 273 273 274 274 275 275 276 277 278 278 279 279 280 280 280 281 281 282 283 283 283 284 284 284 285 285 285 286
256 256 257 257 257 257 257 258 258 258 258 258 258 258 258 259 259 260 260 261 261 262 263 263 263 264 264 264 264 265 265 265 266 266 267 267 268 268 269 269 270 270 270 270 271 271 271 272 272 272 272 272 273 273 273 274 274 274 274 275 275 275 276 277 277 277 278 278 279 279 280 281 281 282 282 283 283 283 283 284 284 284 284 284 285
257 257 257 257 258 258 258 258 258 258 258 258 258 259 259 259 259 259 260 260 260 261 261 262 263 263 264 264 264 265 265 265 266 266 266 267 267 268 268 269 269 270 270 270 271 271 271 272 272 272 272 273 273 273 274 274 274 275 275 275 276 276 276 276 277 277 278 278 279 279 280 280 281 281 282 282 283 283 283 283 283 283 283 284 284
257 257 258 258 258 258 258 259 259 259 259 259 259 259 259 259 259 259 260 260 260 261 261 261 262 262 263 263 264 264 265 265 266 266 267 267 267 268 268 268 269 269 269 270 270 271 271 271 272 272 272 273 273 273 274 274 275 275 275 276 276 276 277 277 277 277 278 278 279 279 280 280 281 281 281 282 282 282 283 283 283 283 283 283 283
259 259 258 258 258 259 259 259 259 259 259 259 259 259 259 259 259 260 260 260 260 261 261 261 262 262 262 263 263 264 264 264 265 266 266 267 267 267 268 268 268 269 269 269 270 270 271 271 272 272 272 273 273 273 274 274 275 275 276 276 276 277 277 277 277 277 278 278 279 279 279 280 280 280 281 281 281 281 282 282 282 282 282 282 283
260 260 260 260 260 260 260 260 260 260 260 260 260 260 260 260 260 260 260 260 260 260 261 261 262 262 262 263 263 263 264 264 264 265 265 266 266 267 267 268 268 268 269 269 269 270 270 271 271 272 272 272 273 273 273 274 274 275 275 275 276 276 276 276 276 277 277 277 277 278 278 278 279 279 279 279 280 280 280 281 281 281 282 282 282
261 262 261 261 261 261 261 261 261 261 261 261 261 261 261 261 261 261 261 261 261 261 261 261 261 261 262 262 263 263 264 264 264 265 265 265 266 266 267 267 268 268 268 269 269 269 270 270 271 271 271 272 272 272 273 273 273 273 274 274 274 275 275 275 275 276 276 276 276 277 277 277 277 277 277 278 278 278 278 279 279 280 280 281 281
262 262 262 262 262 262 262 263 263 263 263 262 262 262 262 262 262 262 262 262 262 261 261 261 261 261 262 262 262 263 263 264 264 264 265 265 266 266 267 267 268 268 268 269 269 269 269 270 270 270 271 271 272 272 272 272 272 272 272 273 273 273 273 274 274 274 274 275 275 275 276 276 276 276 276 276 276 276 277 277 278 278 279 279 280
263 263 262 262 262 262 262 263 263 263 263 263 263 263 263 263 263 262 262 262 262 262 262 262 262 262 262 262 262 263 263 263 264 264 265 265 265 266 266 267 267 268 268 269 269 269 269 269 270 270 270 271 271 272 272 272 272 272 272 272 272 272 273 273 273 273 273 273 274 274 274 274 275 275 275 275 275 275 276 276 276 277 277 278 278
263 263 263 263 263 262 262 262 262 262 262 263 263 263 263 263 263 263 263 263 262 262 262 263 263 263 263 263 263 263 263 264 264 264 264 265 265 265 266 266 266 267 267 268 268 269 269 269 269 270 270 270 271 271 272 272 272 272 273 273 273 273 273 273 273 273 273 273 273 273 274 274 274 274 274 274 274 275 275 275 275 275 276 276 277
263 263 263 263 263 263 263 263 263 263 262 262 262 262 263 263 263 263 263 263 263 262 262 262 262 263 263 263 263 263 264 264 264 264 265 265 265 265 266 266 266 266 267 267 268 268 268 269 269 269 270 270 270 271 271 272 272 272 273 273 273 274 274 274 274 274 274 274 274 274 274 274 274 274 274 274 274 274 274 274 274 274 274 274 275
263 263 263 262 262 262 263 263 263 263 263 263 263 263 263 262 262 262 262 262 262 262 262 262 262 262 262 262 263 263 263 264 264 264 264 265 265 265 265 266 266 266 267 267 267 268 268 268 269 269 269 269 270 270 270 271 271 272 272 273 273 273 273 274 274 274 274 274 274 274 274 274 274 274 274 274 274 274 274 274 274 274 273 273 273
265 264 263 263 262 262 262 261 261 262 262 263 263 263 263 263 263 263 263 263 262 262 262 262 262 262 262 262 262 263 263 263 264 264 264 264 265 265 265 266 266 266 266 266 267 267 267 268 268 268 269 269 269 270 270 270 271 271 271 272 272 273 273 273 273 274 274 274 274 274 274 274 274 274 274 274 274 274 274 273 273 273 273 273 273
267 266 265 264 264 263 262 262 261 261 261 261 262 262 262 263 263 263 263 263 263 263 263 263 263 263 262 262 263 263 263 263 263 264 264 264 265 265 265 266 266 266 266 267 267 267 267 267 267 268 268 268 269 269 269 270 270 270 271 271 272 272 272 273 273 273 274 274 274 274 274 274 274 274 274 274 273 273 273 273 273 273 273 273 273
268 267 266 266 265 265 264 263 263 262 261 261 261 261 261 262 262 262 263 263 264 264 264 264 264 264 264 263 263 263 263 263 264 264 264 265 265 265 265 265 266 266 266 267 267 267 267 268 268 268 268 269 269 269 269 270 270 271 271 271 272 272 273 273 273 274 274 274 274 274 274 274 274 274 274 273 273 273 273 273 273 273 273 273 273
267 267 267 267 266 266 265 265 264 264 263 262 262 261 261 261 261 261 262 262 263 263 263 264 264 265 265 265 264 264 264 264 264 264 264 265 265 265 266 266 266 266 266 267 267 267 268 268 268 268 269 269 269 269 270 270 271 271 272 272 272 273 273 274 274 274 275 275 275 275 275 275 275 275 274 274 274 273 273 273 274 274 274 274 274
267 267 267 267 267 266 266 265 265 265 264 263 263 263 262 262 261 261 261 261 261 262 262 262 262 263 264 264 265 265 265 265 264 264 264 265 265 265 266 266 266 266 267 267 267 267 268 268 268 269 269 269 269 270 270 270 271 271 272 272 273 273 274 274 274 275 275 275 276 276 276 276 276 275 275 275 274 274 274 274 274 274 274 274 274
266 266 266 266 266 266 266 266 265 265 265 264 264 264 263 263 263 262 261 260 260 260 260 261 261 261 262 262 263 263 264 265 265 265 265 265 265 265 265 266 266 266 267 267 267 267 268 268 268 269 269 269 270 270 270 271 271 272 272 273 273 274 274 274 275 275 275 276 276 276 276 276 276 276 276 275 275 275 275 275 275 274 274 273 273
266 265 266 266 266 266 266 266 266 265 265 265 264 264 264 263 263 263 262 261 260 259 259 259 259 260 260 260 261 261 262 263 264 264 265 265 265 265 265 266 266 266 266 267 267 267 268 268 268 269 269 269 270 270 270 271 271 272 272 273 273 274 274 275 275 275 276 276 276 276 276 276 276 276 276 276 276 275 275 275 274 274 274 273 273
266 266 266 266 266 266 266 266 266 266 265 265 264 264 264 263 263 263 263 262 262 260 259 259 259 259 259 259 260 260 260 261 261 262 263 264 265 265 265 266 266 266 266 267 267 268 268 268 269 269 269 269 270 270 270 271 271 272 273 273 273 274 274 275 275 275 276 276 276 276 276 276 276 276 276 276 275 275 275 274 274 274 274 273 273
266 266 266 266 266 266 266 266 266 266 265 265 265 264 264 264 263 263 263 263 263 262 261 260 259 258 258 258 259 259 259 260 260 261 261 262 263 264 265 265 266 266 266 267 267 267 268 268 268 269 269 269 270 270 271 271 272 272 273 273 274 274 275 275 275 275 276 276 276 276 276 276 276 276 275 275 275 275 274 274 274 274 274 274 273
266 266 266 266 266 266 266 266 266 266 265 265 265 264 264 263 263 263 263 263 263 263 262 262 260 259 258 258 258 259 259 259 259 260 260 261 262 263 263 264 265 266 266 266 267 267 267 268 268 268 269 269 270 270 270 271 271 272 273 273 274 274 274 275 275 275 275 276 276 276 276 276 275 275 275 275 274 274 274 274 274 274 273 273 273
266 266 266 266 266 266 266 266 266 266 266 265 265 264 264 263 263 263 263 263 263 263 263 262 262 261 260 259 258 258 258 259 259 259 260 260 261 262 262 263 264 264 265 266 266 266 267 267 267 268 268 268 269 270 270 271 271 272 272 272 273 273 274 274 274 275 275 275 275 275 275 275 275 275 274 274 274 274 274 274 274 273 273 272 272
267 267 267 267 267 267 267 266 266 266 266 266 265 265 264 264 263 263 262 263 263 263 263 263 262 262 262 261 260 259 259 259 259 259 260 260 261 261 262 262 263 263 264 265 265 266 266 266 267 267 267 268 268 269 270 270 271 271 272 272 272 273 273 273 274 274 274 274 274 274 275 274 274 274 274 273 273 273 273 273 273 272 272 272 272
267 267 267 267 267 267 267 267 266 266 266 266 265 265 265 264 264 263 263 262 263 263 263 263 263 262 262 262 261 260 259 259 259 259 259 260 261 261 262 262 262 263 263 264 264 265 265 266 266 266 266 267 267 268 269 269 270 271 271 271 272 272 272 273 273 273 273 274 274 274 274 274 274 273 273 273 273 273 273 272 272 272 271 271 271
267 267 267 267 267 267 267 267 266 266 266 266 265 265 265 265 264 264 263 263 263 263 263 263 263 263 263 262 262 261 261 260 259 259 259 259 260 260 261 262 262 262 262 263 263 263 264 264 265 265 266 266 266 267 268 268 269 269 270 271 271 271 272 272 272 273 273 273 273 273 273 273 273 273 273 272 272 272 272 272 271 271 271 271 271
268 267 267 267 267 267 267 267 267 267 266 266 266 265 265 265 264 264 264 263 263 263 263 263 263 263 263 263 263 262 262 261 260 260 259 259 259 259 260 260 261 261 261 262 262 262 263 263 264 264 265 266 266 266 267 267 268 268 269 269 270 271 271 271 272 272 272 272 272 272 272 272 272 272 272 272 271 271 271 271 270 270 270 270 270
269 268 267 267 267 267 267 267 267 267 266 266 266 265 265 265 264 264 264 264 264 263 263 263 263 263 263 264 264 263 263 262 262 261 260 259 259 258 259 259 260 261 261 261 261 262 262 262 263 263 264 265 265 266 266 267 267 267 268 268 269 269 270 270 270 271 271 271 271 271 271 271 271 271 271 271 271 270 270 270 269 269 269 269 269
269 269 268 267 267 266 266 266 266 266 266 266 265 265 265 265 264 264 264 263 263 263 263 263 263 263 263 263 263 264 263 263 263 262 261 260 260 259 259 259 259 260 261 261 261 262 262 262 262 263 263 264 264 265 265 265 266 266 266 267 267 268 268 269 269 269 269 270 270 270 270 270 269 269 269 270 270 269 269 269 268 268 267 267 267
270 269 269 268 267 267 266 266 266 266 266 266 265 265 265 264 264 263 263 263 263 262 262 262 262 262 262 262 263 263 263 263 263 262 262 261 261 260 260 259 259 260 260 261 261 261 261 261 262 262 263 263 263 264 264 264 264 265 265 266 266 267 267 267 267 268 268 268 268 268 268 268 268 268 268 268 269 269 268 268 267 267 266 266 265
270 270 269 269 268 268 267 266 266 266 266 266 266 265 265 265 264 263 263 262 262 261 261 261 261 262 262 262 262 262 262 262 262 262 262 261 260 260 259 259 259 259 259 259 260 260 261 261 261 261 262 262 262 263 263 263 263 263 264 265 265 265 266 266 266 266 266 267 267 267 267 267 267 267 267 267 268 268 268 267 267 267 266 266 265
271 270 270 270 269 269 268 267 267 266 266 265 265 265 266 265 265 265 264 263 263 262 261 261 261 261 261 261 261 261 261 262 262 262 262 261 261 260 259 259 258 258 258 258 258 259 259 260 260 260 260 261 261 261 262 262 262 262 262 263 264 264 264 265 265 265 265 266 266 266 266 266 266 267 267 266 266 266 267 267 266 266 266 266 265
273 272 271 270 270 269 269 269 268 267 267 266 265 265 265 265 265 265 265 265 264 264 263 262 262 261 261 261 261 261 261 261 261 261 262 262 261 261 260 260 259 259 258 258 258 258 258 259 259 259 259 259 260 260 260 260 260 261 261 262 262 263 263 264 264 264 265 265 265 265 265 265 266 266 266 266 265 265 265 265 265 265 265 265 265
274 273 272 271 270 270 269 269 269 268 268 267 267 266 265 265 265 264 264 264 264 264 263 263 263 262 262 262 261 261 261 260 260 261 261 261 261 261 261 261 260 260 259 259 258 258 258 258 258 258 258 258 258 259 259 259 259 260 260 260 261 261 262 262 263 263 263 264 264 264 264 264 265 265 265 265 265 264 264 264 264 264 264 264 264
275 275 274 272 271 270 270 269 269 268 268 268 268 267 267 266 266 265 264 264 264 264 263 263 262 262 262 262 261 261 261 261 260 260 260 260 260 260 261 260 260 260 260 260 259 259 259 258 258 258 258 258 257 257 258 258 258 258 259 259 260 260 261 261 261 262 262 262 263 263 263 263 263 263 264 264 264 264 263 263 263 263 263 263 263
276 275 275 274 273 272 271 270 269 268 268 268 268 267 267 267 266 266 265 265 264 264 263 263 263 262 261 261 261 261 260 261 261 261 260 260 260 260 260 260 260 260 260 260 260 260 260 259 259 259 258 258 257 257 257 257 257 257 258 258 259 259 260 260 260 260 261 261 262 262 262 262 262 262 262 262 262 263 263 262 262 262 262 263 263
Height
10589 10591 10592 10592 10593 10594 10596 10599 10602 10604 10606 10607 10608 10610 10611 10613 10615 10616 10616 10616 10617 10619 10619 10620 10620 10621 10621 10622 10622 10621 10622 10622 10622 10623 10625 10626 10626 10627 10627 10628 10630 10633 10632 10632 10631 10630 10632 10634 10634 10631 10627 10627 10628 10626 10625 10624 10622 10622 10622 10622 10622 10621 10621 10621 10627 10642 10648 10640 10636 10639 10637 10633 10629 10622 10615 10615 10615 10614 10616 10616 10614 10614 10614 10611 10606
10573 10575 10577 10577 10577 10579 10580 10583 10586 10588 10590 10591 10593 10594 10596 10599 10601 10602 10602 10602 10603 10605 10606 10606 10607 10608 10608 10608 10608 10608 10608 10608 10607 10609 10611 10612 10612 10613 10613 10615 10617 10619 10620 10620 10619 10618 10620 10622 10622 10619 10614 10615 10617 10616 10614 10612 10609 10610 10610 10609 10610 10610 10607 10606 10610 10622 10634 10632 10625 10625 10626 10623 10622 10617 10609 10606 10605 10603 10604 10604 10603 10602 10602 10600 10597
10557 10558 10560 10561 10562 10564 10566 10567 10568 10570 10573 10575 10577 10579 10581 10584 10586 10587 10588 10588 10588 10590 10591 10592 10593 10594 10595 10594 10594 10594 10594 10593 10593 10594 10596 10597 10598 10599 10599 10601 10603 10605 10607 10607 10607 10605 10607 10609 10610 10606 10602 10603 10606 10603 10601 10600 10597 10597 10599 10597 10597 10598 10595 10593 10596 10603 10614 10621 10617 10613 10613 10612 10611 10608 10602 10597 10595 10593 10593 10592 10590 10590 10589 10587 10586
10542 10542 10543 10544 10545 10548 10550 10551 10551 10553 10555 10558 10561 10564 10566 10569 10570 10572 10572 10572 10572 10574 10575 10577 10578 10579 10580 10580 10580 10580 10579 10579 10579 10580 10581 10582 10584 10585 10585 10587 10589 10592 10593 10594 10594 10593 10593 10596 10596 10593 10590 10591 10593 10591 10587 10586 10585 10584 10586 10585 10583 10584 10583 10580 10583 10586 10592 10604 10608 10602 10599 10601 10600 10597 10593 10588 10584 10581 10581 10580 10578 10577 10575 10573 10574
10525 10527 10528 10529 10530 10532 10533 10534 10534 10536 10538 10541 10544 10546 10549 10551 10553 10555 10556 10556 10557 10558 10559 10561 10562 10564 10565 10565 10566 10565 10564 10565 10565 10565 10565 10566 10569 10571 10572 10573 10575 10577 10579 10580 10580 10580 10580 10582 10582 10579 10577 10578 10579 10577 10573 10572 10572 10571 10572 10573 10570 10569 10570 10569 10570 10571 10574 10584 10593 10591 10586 10586 10587 10585 10582 10578 10574 10571 10569 10567 10565 10563 10561 10560 10560
10508 10509 10511 10513 10514 10516 10517 10518 10518 10519 10521 10524 10527 10529 10531 10533 10535 10537 10539 10540 10541 10542 10543 10545 10546 10548 10549 10549 10550 10550 10550 10550 10550 10550 10550 10551 10553 10556 10557 10559 10561 10562 10564 10566 10566 10566 10566 10567 10567 10564 10563 10563 10564 10563 10560 10558 10558 10558 10558 10559 10557 10555 10557 10558 10556 10556 10559 10565 10574 10577 10575 10572 10572 10572 10570 10566 10563 10562 10559 10555 10551 10549 10547 10546 10546
10490 10492 10493 10495 10497 10499 10501 10502 10502 10503 10505 10507 10510 10512 10514 10515 10517 10519 10521 10523 10525 10525 10526 10528 10530 10531 10532 10533 10534 10535 10535 10534 10534 10534 10535 10535 10537 10540 10542 10544 10546 10548 10549 10551 10551 10552 10552 10552 10552 10551 10548 10548 10549 10548 10546 10544 10543 10544 10545 10544 10542 10540 10542 10544 10543 10541 10544 10548 10554 10560 10561 10558 10557 10558 10557 10553 10551 10551 10547 10541 10540 10539 10534 10531 10532
10475 10475 10476 10478 10480 10482 10484 10485 10486 10487 10489 10491 10493 10495 10496 10498 10499 10501 10503 10506 10508 10509 10510 10511 10512 10513 10515 10517 10517 10518 10518 10518 10518 10518 10519 10520 10522 10525 10527 10529 10531 10533 10535 10536 10537 10537 10537 10537 10537 10536 10535 10533 10534 10533 10532 10530 10528 10530 10531 10528 10526 10526 10528 10529 10529 10528 10528 10531 10536 10541 10543 10543 10544 10544 10542 10540 10539 10537 10532 10527 10529 10530 10523 10518 10520
10459 10459 10460 10460 10462 10464 10465 10467 10468 10469 10471 10473 10476 10478 10480 10480 10482 10483 10485 10488 10491 10492 10493 10494 10495 10495 10497 10499 10500 10500 10500 10500 10501 10502 10502 10504 10507 10509 10512 10514 10516 10519 10520 10522 10523 10522 10522 10522 10521 10521 10520 10519 10519 10518 10517 10515 10514 10515 10517 10515 10512 10512 10513 10514 10514 10514 10513 10514 10518 10522 10523 10526 10530 10530 10526 10526 10525 10522 10517 10514 10515 10517 10511 10509 10512
10441 10442 10442 10443 10444 10445 10446 10448 10449 10450 10452 10454 10457 10460 10462 10463 10465 10467 10468 10471 10473 10475 10476 10476 10477 10478 10479 10481 10482 10482 10482 10482 10483 10484 10485 10487 10491 10493 10496 10499 10500 10503 10505 10507 10508 10508 10506 10506 10506 10506 10505 10504 10504 10502 10501 10500 10499 10500 10502 10503 10500 10499 10499 10501 10501 10500 10498 10497 10500 10503 10504 10509 10515 10513 10509 10509 10509 10505 10503 10500 10500 10502 10499 10499 10502
10421 10423 10424 10424 10425 10427 10428 10429 10431 10431 10432 10434 10437 10440 10443 10445 10447 10449 10451 10453 10455 10457 10458 10459 10459 10460 10462 10464 10464 10464 10463 10464 10465 10466 10467 10469 10473 10476 10480 10482 10484 10485 10488 10491 10493 10493 10491 10490 10490 10489 10489 10488 10487 10486 10485 10485 10484 10484 10486 10488 10488 10486 10486 10487 10487 10486 10483 10481 10483 10485 10487 10492 10499 10497 10492 10491 10490 10487 10487 10486 10485 10487 10485 10484 10488
10402 10403 10405 10406 10406 10407 10408 10410 10412 10413 10413 10415 10417 10420 10424 10426 10428 10430 10432 10434 10435 10437 10439 10440 10441 10441 10443 10445 10447 10446 10445 10444 10445 10447 10449 10451 10455 10458 10462 10465 10467 10468 10470 10472 10474 10476 10475 10474 10473 10472 10472 10471 10469 10468 10468 10467 10468 10469 10470 10472 10473 10473 10471 10471 10472 10473 10470 10466 10466 10469 10472 10475 10479 10481 10477 10473 10470 10470 10471 10471 10470 10469 10467 10467 10471
10380 10383 10384 10386 10388 10389 10389 10391 10392 10394 10394 10395 10398 10401 10404 10407 10410 10412 10414 10415 10416 10417 10417 10418 10419 10421 10422 10425 10427 10428 10427 10427 10427 10427 10429 10432 10435 10438 10442 10446 10449 10451 10452 10453 10454 10456 10457 10456 10456 10456 10454 10452 10450 10449 10449 10450 10452 10453 10454 10456 10457 10457 10456 10455 10456 10456 10453 10449 10448 10453 10459 10459 10459 10463 10462 10455 10451 10454 10456 10455 10453 10450 10448 10451 10454
10358 10361 10363 10365 10367 10369 10371 10372 10373 10374 10375 10376 10378 10380 10384 10387 10390 10393 10396 10398 10398 10398 10398 10398 10398 10399 10400 10403 10406 10407 10407 10408 10409 10410 10411 10413 10415 10417 10421 10424 10428 10432 10434 10434 10434 10435 10436 10436 10437 10439 10438 10434 10431 10429 10429 10431 10434 10436 10438 10440 10441 10441 10441 10440 10439 10436 10431 10428 10429 10436 10443 10444 10441 10443 10445 10439 10434 10437 10438 10436 10434 10431 10431 10434 10436
10339 10341 10343 10344 10345 10347 10350 10353 10354 10355 10356 10357 10359 10360 10362 10366 10369 10372 10376 10378 10379 10379 10378 10378 10379 10379 10380 10381 10384 10386 10385 10386 10388 10390 10391 10394 10395 10396 10399 10402 10406 10410 10412 10413 10413 10414 10415 10414 10415 10419 10420 10418 10413 10408 10408 10412 10415 10418 10422 10423 10423 10424 10425 10425 10422 10415 10409 10407 10409 10415 10422 10426 10424 10423 10425 10422 10418 10418 10418 10415 10413 10414 10415 10415 10416
10319 10320 10322 10323 10324 10325 10327 10330 10333 10334 10336 10337 10339 10341 10343 10345 10347 10350 10354 10357 10358 10358 10358 10358 10359 10359 10360 10361 10363 10365 10365 10365 10367 10369 10370 10372 10373 10375 10378 10381 10384 10387 10389 10390 10390 10392 10392 10392 10393 10396 10398 10399 10396 10390 10390 10392 10395 10399 10402 10404 10405 10406 10409 10410 10403 10394 10390 10391 10392 10393 10398 10403 10405 10404 10403 10401 10399 10398 10397 10394 10395 10397 10396 10394 10397
10298 10299 10300 10301 10303 10303 10304 10307 10310 10312 10314 10316 10318 10320 10323 10325 10326 10328 10332 10336 10337 10336 10336 10337 10337 10338 10339 10340 10341 10343 10344 10344 10346 10348 10350 10352 10353 10354 10356 10359 10362 10365 10366 10367 10367 10369 10369 10369 10369 10372 10375 10377 10375 10372 10371 10373 10376 10379 10380 10382 10385 10388 10392 10393 10383 10374 10373 10376 10376 10376 10378 10381 10384 10383 10381 10380 10380 10377 10372 10372 10379 10379 10371 10370 10378
10277 10277 10278 10279 10280 10281 10282 10284 10287 10290 10292 10293 10296 10298 10301 10304 10305 10307 10310 10313 10316 10315 10315 10315 10316 10316 10318 10318 10320 10322 10323 10323 10324 10325 10327 10330 10332 10334 10337 10339 10341 10343 10344 10345 10345 10346 10346 10346 10346 10348 10352 10355 10355 10352 10351 10353 10355 10359 10360 10361 10364 10369 10374 10372 10363 10357 10359 10358 10358 10360 10361 10363 10364 10363 10362 10361 10360 10356 10350 10351 10358 10356 10348 10351 10359
10253 10254 10255 10257 10257 10257 10258 10260 10262 10265 10268 10270 10273 10276 10279 10282 10284 10285 10287 10289 10292 10293 10293 10294 10295 10296 10297 10297 10298 10300 10302 10302 10302 10302 10304 10307 10310 10313 10315 10318 10320 10321 10322 10324 10324 10324 10323 10323 10322 10324 10327 10331 10333 10332 10331 10331 10333 10337 10339 10340 10342 10347 10351 10348 10342 10342 10343 10341 10341 10342 10343 10344 10345 10344 10344 10343 10341 10336 10331 10330 10332 10330 10328 10332 10337
10229 10230 10232 10233 10234 10234 10235 10236 10238 10240 10243 10245 10248 10251 10254 10258 10260 10263 10265 10267 10269 10271 10271 10271 10273 10275 10276 10276 10276 10278 10279 10281 10281 10281 10282 10284 10287 10290 10292 10294 10296 10298 10300 10302 10303 10303 10302 10300 10300 10301 10303 10307 10310 10310 10310 10310 10311 10313 10317 10319 10320 10324 10326 10324 10322 10324 10324 10324 10325 10325 10324 10326 10327 10325 10325 10325 10323 10319 10314 10310 10308 10307 10306 10310 10314
10206 10207 10209 10210 10210 10211 10212 10213 10215 10217 10219 10221 10224 10226 10229 10232 10235 10238 10242 10244 10247 10248 10249 10249 10251 10253 10254 10254 10253 10253 10255 10257 10259 10260 10261 10262 10264 10267 10269 10270 10272 10275 10277 10279 10281 10282 10282 10280 10278 10278 10280 10283 10286 10288 10289 10289 10289 10291 10294 10297 10298 10299 10301 10302 10303 10304 10304 10304 10307 10307 10308 10309 10309 10307 10306 10306 10306 10303 10297 10292 10289 10287 10286 10288 10291
10182 10183 10184 10185 10187 10188 10189 10189 10190 10193 10195 10198 10200 10203 10204 10207 10210 10214 10217 10220 10222 10224 10226 10227 10228 10231 10233 10232 10231 10230 10231 10233 10235 10237 10239 10241 10242 10243 10245 10246 10248 10250 10254 10257 10259 10260 10261 10260 10258 10257 10258 10260 10263 10265 10266 10268 10269 10270 10272 10275 10276 10277 10277 10279 10282 10285 10284 10284 10285 10287 10290 10292 10291 10289 10288 10288 10288 10285 10279 10275 10273 10270 10267 10267 10269
10158 10160 10161 10162 10163 10164 10165 10166 10166 10167 10170 10172 10175 10179 10180 10182 10185 10189 10192 10195 10198 10199 10201 10202 10204 10207 10210 10210 10210 10210 10210 10210 10211 10213 10216 10218 10220 10221 10222 10223 10225 10227 10229 10232 10235 10237 10238 10238 10237 10237 10237 10238 10239 10241 10242 10244 10245 10247 10249 10251 10253 10254 10255 10257 10260 10263 10264 10264 10264 10266 10269 10271 10270 10268 10268 10268 10267 10265 10262 10260 10259 10256 10252 10249 10248
10133 10134 10136 10137 10139 10140 10141 10142 10142 10143 10144 10147 10149 10152 10154 10156 10159 10162 10165 10169 10173 10174 10176 10177 10179 10182 10185 10187 10187 10188 10188 10188 10188 10189 10191 10194 10196 10199 10201 10203 10204 10205 10206 10207 10210 10212 10214 10215 10215 10215 10215 10215 10216 10217 10217 10218 10219 10221 10223 10225 10227 10229 10232 10234 10236 10239 10240 10242 10244 10245 10247 10249 10249 10247 10247 10247 10245 10244 10244 10242 10241 10239 10236 10233 10231
10109 10109 10110 10112 10114 10116 10117 10119 10119 10119 10120 10122 10124 10126 10128 10130 10132 10134 10138 10142 10146 10149 10151 10153 10155 10158 10160 10162 10162 10163 10165 10166 10166 10166 10167 10170 10172 10175 10178 10181 10182 10183 10184 10185 10186 10188 10189 10190 10191 10192 10193 10193 10193 10193 10193 10193 10194 10195 10196 10198 10199 10202 10205 10207 10210 10212 10214 10217 10220 10221 10223 10226 10226 10224 10224 10224 10223 10222 10222 10222 10220 10219 10218 10216 10214
10088 10086 10086 10087 10089 10091 10093 10095 10095 10095 10096 10099 10101 10102 10104 10105 10107 10109 10111 10114 10118 10122 10124 10128 10131 10134 10136 10137 10138 10139 10141 10142 10143 10143 10144 10146 10148 10151 10153 10156 10159 10160 10161 10162 10164 10165 10165 10165 10166 10168 10169 10170 10170 10170 10170 10170 10170 10171 10172 10173 10174 10175 10178 10180 10182 10184 10187 10190 10193 10195 10197 10199 10200 10199 10199 10199 10199 10198 10199 10198 10198 10198 10198 10197 10195
10067 10066 10065 10065 10067 10069 10071 10073 10073 10073 10073 10075 10077 10079 10080 10082 10084 10085 10087 10089 10093 10095 10098 10102 10106 10109 10111 10113 10115 10116 10117 10118 10119 10120 10120 10122 10124 10126 10128 10132 10134 10136 10137 10139 10141 10142 10142 10142 10143 10144 10145 10145 10146 10147 10148 10148 10149 10149 10150 10151 10152 10153 10154 10155 10156 10159 10161 10164 10167 10170 10171 10173 10173 10174 10175 10174 10174 10174 10173 10173 10173 10174 10175 10175 10174
10044 10044 10044 10044 10045 10046 10048 10051 10053 10053 10052 10053 10054 10056 10058 10059 10062 10063 10064 10067 10069 10072 10075 10079 10081 10083 10086 10089 10092 10093 10095 10096 10097 10097 10098 10100 10101 10103 10105 10107 10110 10111 10112 10114 10117 10118 10119 10120 10120 10121 10121 10122 10123 10124 10125 10126 10127 10128 10129 10130 10131 10132 10132 10133 10134 10135 10137 10140 10143 10145 10147 10148 10149 10150 10151 10150 10150 10149 10148 10147 10146 10148 10150 10151 10152
10021 10021 10023 10023 10024 10025 10026 10028 10031 10033 10033 10033 10033 10035 10037 10038 10040 10042 10044 10046 10048 10051 10054 10057 10058 10060 10063 10066 10069 10071 10073 10074 10075 10075 10076 10078 10080 10082 10083 10085 10086 10087 10089 10091 10093 10094 10095 10097 10098 10099 10100 10101 10101 10102 10103 10104 10105 10106 10108 10110 10111 10111 10112 10113 10113 10114 10114 10116 10119 10121 10123 10125 10126 10127 10127 10126 10125 10124 10123 10122 10122 10123 10126 10128 10130
9998 9999 10001 10002 10003 10004 10005 10006 10009 10011 10013 10013 10014 10015 10016 10018 10020 10023 10024 10026 10028 10031 10034 10037 10037 10039 10041 10045 10048 10050 10051 10053 10054 10054 10055 10056 10058 10061 10063 10065 10065 10066 10067 10068 10070 10071 10073 10074 10075 10077 10078 10079 10080 10081 10082 10083 10085 10086 10087 10089 10091 10092 10092 10093 10093 10093 10092 10093 10095 10097 10100 10102 10104 10104 10103 10102 10101 10100 10100 10099 10100 10101 10103 10106 10108
9977 9977 9979 9981 9982 9983 9984 9985 9987 9989 9991 9993 9994 9995 9997 9998 10000 10003 10006 10007 10008 10011 10015 10018 10019 10020 10021 10024 10027 10029 10031 10033 10035 10035 10036 10036 10037 10039 10042 10045 10046 10047 10048 10049 10049 10050 10052 10053 10054 10055 10057 10058 10059 10061 10062 10064 10065 10066 10068 10069 10071 10072 10073 10073 10073 10073 10073 10072 10073 10075 10077 10080 10081 10081 10080 10079 10078 10078 10078 10079 10079 10080 10082 10084 10086
9957 9957 9958 9959 9961 9963 9965 9966 9967 9968 9970 9973 9975 9976 9978 9979 9980 9983 9987 9990 9991 9991 9994 9998 10001 10002 10004 10005 10007 10008 10009 10011 10014 10016 10017 10018 10018 10019 10022 10024 10026 10028 10030 10030 10030 10031 10033 10033 10034 10035 10037 10037 10038 10040 10043 10045 10046 10048 10049 10050 10051 10053 10053 10054 10054 10054 10054 10054 10054 10055 10057 10059 10059 10059 10058 10058 10058 10058 10059 10060 10060 10061 10063 10064 10065
9939 9939 9940 9940 9941 9943 9945 9947 9948 9949 9951 9953 9956 9958 9960 9961 9962 9962 9963 9968 9971 9973 9973 9976 9980 9983 9985 9987 9989 9990 9991 9991 9993 9995 9998 9999 10000 10000 10002 10005 10007 10008 10010 10011 10012 10013 10014 10015 10016 10018 10018 10018 10019 10021 10024 10027 10029 10030 10031 10032 10033 10034 10035 10036 10036 10036 10036 10036 10036 10037 10038 10040 10040 10039 10039 10040 10040 10040 10040 10041 10042 10043 10044 10046 10047
9921 9922 9922 9923 9923 9924 9926 9928 9930 9931 9933 9935 9937 9939 9940 9942 9944 9943 9942 9944 9948 9952 9955 9957 9961 9963 9965 9967 9970 9972 9974 9975 9975 9976 9977 9979 9980 9982 9984 9986 9988 9990 9991 9992 9993 9994 9996 9998 9999 10000 10000 10001 10001 10003 10006 10009 10011 10012 10014 10015 10016 10017 10018 10018 10018 10019 10019 10019 10019 10020 10021 10022 10023 10023 10023 10023 10023 10023 10023 10023 10024 10024 10025 10027 10029
9904 9905 9906 9906 9907 9907 9908 9910 9912 9913 9915 9917 9919 9920 9921 9923 9925 9926 9926 9925 9927 9930 9935 9939 9943 9946 9947 9948 9950 9953 9955 9957 9959 9959 9960 9960 9962 9964 9966 9968 9970 9971 9973 9974 9975 9976 9978 9980 9981 9982 9983 9983 9984 9987 9989 9992 9994 9995 9996 9997 9999 10000 10001 10002 10002 10002 10003 10003 10003 10004 10004 10006 10007 10007 10007 10007 10007 10007 10007 10007 10007 10008 10009 10010 10011
9888 9889 9889 9890 9891 9891 9892 9893 9894 9896 9898 9900 9902 9903 9904 9905 9907 9908 9909 9909 9910 9911 9914 9918 9923 9927 9930 9932 9933 9934 9936 9939 9941 9943 9944 9944 9945 9947 9949 9951 9952 9954 9955 9957 9959 9960 9961 9963 9964 9965 9965 9966 9968 9970 9972 9975 9977 9979 9980 9981 9982 9983 9985 9986 9986 9987 9987 9987 9988 9988 9989 9990 9992 9992 9992 9992 9992 9992 9992 9992 9992 9993 9994 9994 9996
9874 9874 9874 9874 9875 9876 9876 9877 9878 9879 9881 9883 9885 9886 9887 9889 9890 9891 9892 9893 9894 9894 9896 9898 9902 9907 9912 9915 9917 9918 9919 9922 9924 9926 9927 9929 9930 9931 9932 9935 9937 9938 9939 9941 9942 9943 9945 9946 9948 9949 9949 9950 9952 9954 9956 9958 9961 9963 9965 9966 9966 9967 9969 9970 9971 9971 9972 9973 9973 9974 9975 9976 9977 9977 9978 9978 9978 9977 9977 9978 9979 9979 9979 9980 9981
9859 9859 9859 9859 9859 9861 9862 9862 9863 9864 9865 9867 9869 9870 9871 9872 9874 9875 9875 9876 9877 9879 9880 9881 9884 9887 9891 9896 9900 9902 9904 9905 9908 9909 9911 9912 9914 9915 9917 9919 9921 9923 9924 9925 9926 9927 9929 9931 9933 9934 9934 9935 9937 9939 9940 9943 9945 9948 9949 9951 9952 9953 9954 9955 9956 9957 9958 9958 9959 9960 9961 9962 9963 9963 9964 9964 9964 9964 9964 9965 9965 9965 9966 9966 9967
9846 9846 9846 9845 9845 9846 9847 9848 9848 9849 9850 9852 9853 9854 9855 9856 9858 9859 9860 9861 9862 9863 9865 9866 9868 9870 9872 9876 9881 9885 9888 9891 9893 9894 9895 9897 9898 9899 9901 9904 9906 9907 9909 9910 9911 9912 9913 9915 9918 9920 9921 9921 9923 9924 9926 9928 9930 9932 9934 9935 9937 9938 9940 9941 9942 9943 9944 9944 9945 9946 9947 9948 9949 9950 9950 9950 9950 9951 9952 9953 9953 9953 9953 9953 9953
9833 9832 9833 9832 9832 9832 9833 9834 9835 9835 9836 9837 9838 9839 9840 9841 9842 9844 9845 9846 9847 9849 9850 9851 9852 9854 9856 9858 9862 9867 9871 9874 9877 9879 9880 9882 9882 9883 9885 9888 9890 9892 9893 9894 9896 9897 9898 9900 9902 9904 9906 9908 9909 9911 9913 9915 9916 9918 9919 9920 9922 9924 9926 9927 9928 9929 9930 9931 9932 9933 9934 9935 9935 9936 9937 9937 9937 9938 9940 9940 9941 9940 9940 9941 9941
9820 9820 9820 9820 9819 9819 9819 9820 9821 9822 9822 9823 9824 9825 9826 9827 9828 9829 9830 9832 9833 9835 9836 9837 9837 9838 9840 9843 9846 9849 9853 9857 9861 9864 9866 9867 9868 9869 9870 9871 9874 9876 9878 9880 9881 9882 9884 9886 9888 9889 9891 9894 9896 9898 9900 9902 9903 9905 9906 9907 9908 9910 9912 9914 9915 9916 9917 9918 9919 9920 9921 9922 9923 9923 9924 9924 9925 9926 9927 9928 9929 9929 9928 9928 9929
9808 9807 9807 9807 9807 9807 9807 9807 9808 9808 9809 9810 9810 9811 9812 9813 9814 9815 9816 9817 9819 9820 9822 9823 9824 9824 9825 9827 9830 9833 9836 9840 9843 9847 9850 9852 9854 9855 9855 9856 9857 9859 9862 9864 9866 9868 9870 9872 9874 9875 9877 9879 9882 9884 9886 9888 9890 9892 9893 9894 9895 9896 9899 9901 9902 9902 9903 9904 9906 9907 9909 9910 9910 9911 9911 9912 9913 9914 9915 9916 9916 9917 9917 9917 9917
9796 9795 9795 9795 9795 9795 9795 9794 9794 9795 9796 9797 9797 9798 9799 9800 9801 9802 9803 9804 9805 9806 9807 9809 9810 9811 9812 9813 9815 9818 9821 9823 9827 9830 9833 9836 9839 9840 9841 9842 9843 9844 9846 9849 9851 9854 9856 9858 9860 9862 9864 9866 9868 9870 9873 9875 9877 9878 9880 9881 9882 9884 9886 9888 9889 9890 9891 9892 9893 9895 9896 9897 9898 9899 9899 9900 9901 9902 9903 9904 9905 9905 9906 9906 9907
9783 9783 9783 9783 9783 9783 9783 9783 9782 9782 9783 9783 9784 9785 9786 9787 9788 9789 9790 9790 9791 9792 9793 9794 9796 9797 9798 9800 9801 9803 9805 9808 9811 9814 9817 9820 9823 9825 9827 9829 9830 9831 9832 9834 9837 9839 9842 9844 9846 9848 9851 9853 9855 9857 9859 9861 9863 9864 9866 9868 9870 9871 9873 9875 9876 9878 9879 9880 9882 9883 9884 9885 9886 9887 9888 9888 9889 9890 9891 9892 9893 9894 9895 9895 9896
9772 9771 9771 9771 9770 9770 9771 9771 9771 9770 9770 9771 9771 9772 9773 9773 9774 9775 9776 9777 9778 9779 9780 9781 9782 9783 9784 9786 9788 9789 9791 9793 9795 9798 9801 9804 9807 9810 9812 9814 9816 9818 9819 9821 9823 9825 9828 9830 9832 9835 9837 9839 9842 9844 9846 9848 9849 9851 9852 9854 9857 9859 9861 9862 9864 9865 9866 9868 9870 9871 9872 9873 9874 9875 9876 9877 9878 9879 9880 9881 9882 9883 9884 9885 9886
9761 9760 9759 9759 9758 9758 9759 9759 9759 9759 9759 9759 9759 9760 9760 9761 9762 9762 9764 9764 9765 9766 9767 9768 9769 9769 9770 9772 9774 9776 9777 9778 9780 9783 9785 9788 9791 9794 9796 9799 9801 9803 9805 9807 9809 9811 9813 9816 9819 9821 9823 9826 9828 9830 9832 9834 9836 9838 9839 9841 9843 9846 9848 9849 9851 9853 9854 9856 9857 9859 9860 9861 9863 9864 9865 9866 9866 9867 9868 9869 9870 9871 9872 9873 9874
9750 9749 9748 9748 9747 9747 9747 9747 9747 9747 9747 9748 9748 9748 9749 9749 9750 9750 9751 9752 9753 9754 9755 9756 9757 9757 9758 9759 9761 9762 9763 9765 9766 9768 9771 9773 9776 9779 9781 9784 9786 9789 9791 9793 9795 9797 9799 9802 9805 9807 9810 9812 9814 9816 9819 9821 9823 9825 9826 9828 9830 9832 9834 9836 9838 9840 9842 9843 9845 9847 9848 9849 9851 9852 9853 9854 9855 9856 9857 9858 9859 9860 9860 9861 9862
9739 9738 9737 9737 9736 9736 9735 9735 9735 9736 9736 9736 9736 9736 9737 9737 9738 9739 9739 9740 9741 9742 9744 9745 9746 9746 9747 9748 9749 9750 9751 9752 9753 9755 9757 9759 9761 9764 9766 9769 9772 9775 9777 9780 9782 9784 9786 9788 9791 9794 9797 9799 9801 9803 9805 9807 9809 9812 9814 9816 9817 9819 9821 9824 9826 9828 9829 9831 9833 9834 9836 9837 9839 9840 9841 9842 9844 9845 9846 9847 9848 9848 9849 9850 9851
9727 9727 9726 9726 9726 9725 9725 9724 9724 9725 9725 9725 9725 9725 9726 9726 9727 9727 9728 9729 9729 9730 9731 9733 9734 9735 9736 9737 9738 9738 9739 9740 9741 9743 9744 9746 9747 9749 9752 9755 9758 9760 9763 9766 9769 9771 9773 9776 9779 9781 9784 9786 9788 9790 9792 9794 9797 9799 9801 9803 9805 9807 9809 9811 9813 9815 9817 9819 9820 9822 9824 9826 9827 9828 9829 9831 9832 9833 9835 9836 9836 9837 9838 9839 9840
9717 9716 9715 9715 9715 9715 9714 9714 9714 9714 9714 9714 9714 9714 9715 9715 9716 9716 9717 9717 9718 9719 9719 9721 9722 9723 9724 9725 9726 9727 9728 9729 9730 9731 9733 9734 9735 9737 9739 9741 9744 9746 9748 9751 9754 9757 9760 9763 9766 9768 9771 9774 9776 9778 9780 9782 9784 9787 9788 9790 9792 9794 9796 9799 9801 9803 9804 9806 9808 9810 9812 9814 9815 9817 9818 9819 9821 9822 9823 9825 9825 9826 9827 9828 9829
9708 9706 9705 9705 9704 9704 9704 9704 9704 9703 9703 9703 9703 9703 9704 9704 9705 9705 9705 9706 9707 9708 9708 9709 9710 9711 9712 9713 9714 9715 9716 9717 9718 9720 9721 9723 9724 9725 9727 9729 9731 9733 9735 9737 9740 9743 9746 9749 9752 9755 9758 9761 9763 9766 9768 9770 9772 9774 9776 9778 9780 9782 9784 9786 9789 9791 9792 9794 9796 9798 9800 9802 9804 9806 9807 9808 9810 9811 9812 9813 9814 9815 9816 9817 9818